Погода в Оренсе

Испания     42°20′41″N   7°51′55″W
темп.,
°C
ветер,
м/с
пор.,
м/с
влажн.,
%
обл.,
%
осадки,
мм/ч
давл.,
гПа
погр.,
м
19 сентября, вс
вс1923:00+10св11835 0.0 102214
02:00+9св01955 0.0 102311
05:00+8св119548 0.0 102311
08:00+7в119692 0.0 102411
11:00+14ссз11665 0.0 1023359
14:00+20сз33400 0.0 10221059
17:00+23сз34324 0.0 10201936
20:00+19ссз365089 0.0 1020213
20 сентября, пн
пн2023:00+12с228956 0.0 102325
02:00+12ссз149576 0.0 1024193
05:00+11ссз239587 0.0 1024163
08:00+11ссз249397 0.0 1024224
11:00+14с376819 0.0 1025805
14:00+20ссв57410 0.0 10231728
17:00+21ссв78344 0.0 10212101
20:00+16ссв610540 0.0 1023854
21 сентября, вт
вт2123:00+10с12880 0.0 102529
02:00+8св11974 0.0 102713
05:00+8всв11976 0.0 102613
08:00+7вюв119711 0.0 102611
11:00+13с11640 0.0 1026438
14:00+21ссз23330 0.0 10231424
17:00+23ссз35284 0.0 10202379
20:00+19ссв474911 0.0 1020466
22 сентября, ср
ср2223:00+12св11780 0.0 102311
02:00+10в11880 0.0 102311
05:00+9вюв11890 0.0 102211
08:00+9в118712 0.0 102212
11:00+15ссз125768 0.0 1021394
14:00+21ссз343899 0.0 10191524
17:00+23с3432100 0.0 10172258
20:00+17ссв2562100 0.0 1018326
23 сентября, чт
чт2323:00+11ссв11905 0.1 102016
02:00+10св11965 0.1 102015
05:00+9ссв119717 0.0 102016
08:00+8с119984 0.0 102031
11:00+14ссз12749 0.0 1020370
14:00+21ссз23410 0.0 10181091
17:00+25с35326 0.0 10152115
20:00+20с595115 0.0 1015612